Flag for Cayman Islands Weather past 2 weeks in George Town, Cayman Islands

Now
90 °F

Passing clouds.


Feels Like: 108 °F
Forecast: N/A
Wind: 6 mph from Southeast

Location: Owen Roberts Airportgrand Cayman

Current Time: Aug 29, 2015 at 4:31:55 PM

Latest Report: Aug 29, 2015 at 4:00 PM


Visibility: N/A

Pressure: 29.86 "Hg

Humidity: 75%

Dew point: 81 °F

Location of George TownLocation

Historic Weather in George Town — Graph

°F

George Town temperature yesterday

Maximum temperature yesterday: 90 °F (at 8:54 AM)
Minimum temperature yesterday: 84 °F (at 6:00 AM)
Average temperature yesterday: 87 °F

Past Weeks' High & Low Weather Summary

 TemperatureHumidityPressure
High91 °F (Aug 17, 12:00 PM)100% (Aug 23, 6:00 AM)30.01 "Hg (Aug 23, 6:00 AM)
Low72 °F (Aug 23, 6:00 AM)56% (Aug 19, 11:00 AM)29.86 "Hg (Aug 24, 3:00 PM)
Average86 °F78%29.94 "Hg
* Reported Aug 14 3:00 PM — Aug 29 3:00 PM, George Town, Weather by CustomWeather, © 2015

Note: Actual official high and low records may vary slightly from our data, if they occured in-between our weather recording intervals... More about our weather records

Advertising

George Town weather history for previous 24 hours

 ConditionsComfort  
Time TempWeatherWind HumidityBarometerVisibility
3:00 PM
Sat, Aug 29
88 °FScattered showers. Scattered clouds.7 mph84%29.86 "HgN/A
2:00 PM88 °FScattered showers. Partly sunny.8 mph79%29.89 "HgN/A
1:00 PM88 °FSprinkles. Scattered clouds.9 mph84%29.92 "HgN/A
12:00 PM91 °FPassing clouds.12 mph75%29.92 "HgN/A
11:00 AM90 °FPassing clouds.12 mph75%29.92 "HgN/A
10:00 AM90 °FPassing clouds.12 mph79%29.92 "HgN/A
9:00 AM90 °FPassing clouds.10 mph75%29.92 "HgN/A
8:00 AM88 °FPassing clouds.12 mph79%29.89 "HgN/A
7:00 AM86 °FPassing clouds.9 mph89%29.89 "HgN/A
6:00 AM86 °FPassing clouds.12 mph84%29.86 "HgN/A
10:00 PM
Fri, Aug 28
86 °FPassing clouds.8 mph79%29.92 "HgN/A
9:00 PM86 °FPassing clouds.9 mph84%29.89 "HgN/A
8:00 PM86 °FPassing clouds.9 mph84%29.89 "HgN/A
7:00 PM86 °FPassing clouds.9 mph79%29.86 "HgN/A
6:00 PM88 °FPassing clouds.10 mph75%29.86 "HgN/A
5:00 PM88 °FScattered clouds.12 mph79%29.86 "HgN/A
4:00 PM90 °FPassing clouds.10 mph75%29.86 "HgN/A
Weather by CustomWeather, © 2015

See weather overviewHow to use our weather pages